Regional Weather Roundup
Issued by NWS Newport/Morehead, NC

Current Version | Previous Version | Graphics & Text | Print | Product List | Glossary Off
Versions: 1 2 3 4 5 6 7 8 9 10 11 12 13 14 15 16 17 18 19 20 21 22 23 24 25 26 27 28 29 30 31 32 33 34 35 36 37 38 39 40 41 42 43 44 45 46 47 48 49 50

000
ASUS42 KMHX 282222
RWRMHX
WEATHER ROUNDUP FOR EASTERN NORTH CAROLINA
NATIONAL WEATHER SERVICE NEWPORT/MOREHEAD CITY NC
600 PM EDT THU AUG 28 2014

NOTE: "FAIR" INDICATES FEW OR NO CLOUDS BELOW 12,000 FEET
WITH NO SIGNIFICANT WEATHER AND/OR OBSTRUCTIONS TO VISIBILITY

NCZ015>017-031-032-045>047-102-103-282300-
NORTH COAST

CITY           SKY/WX    TMP DP  RH WIND       PRES   REMARKS
EDENTON        PTSUNNY   87  73  63 CALM      29.95R
ELIZABETH CITY PTSUNNY   82  73  74 E8        29.96R
KITTY HAWK     MOCLDY    78  69  74 E5        29.96S
MANTEO         PTSUNNY   78  69  75 E7        29.97R

$$

NCZ045>047-081-094-103-104-282300-
CENTRAL COAST

CITY           SKY/WX    TMP DP  RH WIND       PRES   REMARKS
FRISCO         SUNNY     82  70  66 SW10      29.96R
SWANQUARTER      N/A     86 N/A N/A S5        29.91S

$$

NCZ095-097-098-100-101-282300-
SOUTHERN COAST

CITY           SKY/WX    TMP DP  RH WIND       PRES   REMARKS
BEAUFORT       SUNNY     84  71  65 SW12      29.97R
CEDAR ISLAND     N/A     88 N/A N/A S7        30.00S
JACKSONVILLE   SUNNY     87  70  56 S10       29.95R
NEWPORT        NOT AVBL
PINEY ISLAND   CLEAR     88  71  57 S12       29.95S
WILMINGTON     SUNNY     90  65  43 W8        29.96R


$$

NCZ011>013-027>030-043-044-078>080-089-090>093-098-282300-
COASTAL PLAIN

CITY           SKY/WX    TMP DP  RH WIND       PRES   REMARKS
AHOSKIE        MOSUNNY   83  74  73 CALM      29.96R
CLINTON        SUNNY     92  72  51 CALM      29.95S
ELIZABETHTOWN  SUNNY     91  66  44 S6        29.96R
GOLDSBORO      SUNNY     91  76  62 NW6       29.93S HX 102
GREENVILLE     SUNNY     88  72  58 W3        29.98R
HAVELOCK       SUNNY     87  69  54 S9        29.97R
KENANSVILLE    MOSUNNY   91  67  45 CALM      29.96R
KINSTON        SUNNY     90  72  55 NW3       29.96R
NEW BERN       SUNNY     91  69  48 SW5       29.96R
RICHLANDS      SUNNY     91  66  43 SW5       29.96R
ROANOKE RAPIDS NOT AVBL
ROCKY MOUNT    SUNNY     87  72  60 NW5       29.95S
WASHINGTON     SUNNY     88  71  57 CALM      29.95S
WHITEVILLE     SUNNY     89  66  46 S5        29.97R

$$

AMZ130-135-150-152-154-156-158-170-250-252-270-ANZ085-086-088-633-658-670-282300-
MARINE OBSERVATIONS

STATION/POSITION TIME  TEMP    WIND        PRES    WAVE   SWELL
                       AIR SEA DIR/SP/G            HT/PER HT/PER
                 (UTC) (F)     (DEG/KT/KT) (MB)    (FT/S) (FT/S)
CHESAPEAKE LIGHT 2200   78      CALM  /  2 1015.1
BUOY 44014       2200   77 76  320/  2/  4 1014.2    4/11   3/11
DUCK             2200   78 78  110/  6/  6 1014.0
2E DUCK          2200                        N/A     3/10   2/11
OREGON INLET     2200   78 78   60/  6/ 11 1014.9
BUOY 44095       2200      77                N/A     4/11   2/11
20E OREGON INLET NOT AVBL
HATTERAS CG      2200   82 79  220/  9/ 12 1015.0
DIAMOND BUOY     2200   82     230/ 12/ 14 1014.4    5/10   5/10
CAPE LOOKOUT     2200   82     230/  7/  9 1014.7
BEAUFORT LAB     2200   83 81  210/  5/  9 1014.2
30 SE NEW RIVER  2200   82 81  240/ 12/ 14 1015.2    4/10   3/10
5 SE WRIGHTSVILL 2200   79 81  220/ 14/ 16   N/A
BUOY 41002       2105   81 83  240/  6/  6 1017.1    5/ 8   5/ 8
BUOY 41004       2200   81 84  220/  6/  8 1015.8    4/10   3/10

$$


USA.gov is the U.S. government's official web portal to all federal, state and local government web resources and services.